AIM                     
1 31304U 07015A   19264.15037608  .00000412  00000-0  27247-4 0  9999
2 31304  97.9428 131.2498 0004722 186.1706 173.9466 15.13212382679808
PEGASUS R/B             
1 31305U 07015B   19264.70903420  .00000091  00000-0  11875-4 0  9998
2 31305  98.0035 123.8255 0020814  35.8538 324.4078 15.02280348677957